Weather History for KCVX - December, 2012

Change the Weather History Date:

Friday, December 28, 2012

  Actual Average Record
Temperature  
Mean Temperature 26 °F -  
Max Temperature 28 °F 26 °F 44 °F (2003)
Min Temperature 23 °F 11 °F 14 °F (2011)
Degree Days  
Heating Degree Days 40    
Moisture  
Dew Point 20 °F    
Average Humidity 82    
Maximum Humidity 87    
Minimum Humidity 73    
Precipitation  
Precipitation 0.00 in - - ()
Sea Level Pressure  
Sea Level Pressure 30.09 in    
Wind  
Wind Speed 5 mph (East)    
Max Wind Speed 8 mph    
Max Gust Speed -    
Visibility 10 miles    
Events      
Averages and records for this station are not official NWS values.
T = Trace of Precipitation, MM = Missing Value Source: NWS Daily Summary

Daily Weather History Graph

Daily Weather History Graph

Search for Another Location

Airport or City:

Trip Planner

Search our weather history database for the weather conditions in past years. The results will help you decide how hot, cold, wet, or windy it might be!

Date:

Astronomy

Dec. 28, 2012 Rise Set
Actual Time 8:20 AM EST 5:05 PM EST
Civil Twilight 7:46 AM EST 5:39 PM EST
Nautical Twilight 7:08 AM EST 6:17 PM EST
Astronomical Twilight 6:32 AM EST 6:53 PM EST
Moon 5:45 PM EST (12/28) 8:11 AM EST (12/28)
Length of Visible Light 9h 53m
Length of Day
8h 45m
Full, 100% of the Moon is Illuminated
Dec 28
Full
Jan 4
Last Quarter
Jan 11
New
Jan 18
First Quarter
Jan 26
Full

Hourly Weather History & Observations

Time (EST) Temp. Windchill Dew Point Humidity Pressure Visibility Wind Dir Wind Speed Gust Speed Precip Events Conditions
12:35 AM 27.3 °F 23.4 °F 21.2 °F 78% 30.14 in 10.0 mi NNW 3.5 mph - N/A   Overcast
12:54 AM 27.5 °F 23.6 °F 20.8 °F 76% 30.14 in 10.0 mi NW 3.5 mph - N/A   Overcast
1:14 AM 27.5 °F - 21.0 °F 77% 30.13 in 10.0 mi Calm Calm - N/A   Overcast
1:34 AM 27.5 °F 22.2 °F 21.2 °F 77% 30.13 in 10.0 mi NNW 4.6 mph - N/A   Overcast
1:54 AM 27.5 °F 23.6 °F 21.2 °F 77% 30.13 in 10.0 mi NW 3.5 mph - N/A   Overcast
2:15 AM 27.9 °F 22.6 °F 20.3 °F 73% 30.14 in 10.0 mi NW 4.6 mph - N/A   Overcast
2:34 AM 27.9 °F 22.6 °F 20.7 °F 74% 30.14 in 10.0 mi WNW 4.6 mph - N/A   Overcast
2:55 AM 27.9 °F 22.6 °F 21.2 °F 76% 30.15 in 10.0 mi WNW 4.6 mph - N/A   Overcast
3:15 AM 27.9 °F 21.5 °F 21.2 °F 76% 30.15 in 10.0 mi West 5.8 mph - N/A   Overcast
3:35 AM 28.0 °F 21.7 °F 21.2 °F 76% 30.14 in 10.0 mi NW 5.8 mph - N/A   Overcast
3:55 AM 28.0 °F - 21.0 °F 75% 30.14 in 10.0 mi Calm Calm - N/A   Overcast
4:15 AM 26.6 °F 22.6 °F 22.6 °F 85% 30.15 in 10.0 mi East 3.5 mph - N/A   Overcast
4:34 AM 26.2 °F - 22.1 °F 84% 30.14 in 10.0 mi Calm Calm - N/A   Overcast
4:55 AM 26.1 °F 20.5 °F 22.1 °F 85% 30.14 in 10.0 mi ESE 4.6 mph - N/A   Overcast
5:14 AM 26.2 °F 22.1 °F 22.5 °F 86% 30.14 in 10.0 mi East 3.5 mph - N/A   Overcast
5:35 AM 26.1 °F 20.5 °F 22.5 °F 86% 30.14 in 10.0 mi SSE 4.6 mph - N/A   Overcast
5:54 AM 25.5 °F - 22.1 °F 87% 30.14 in 10.0 mi Calm Calm - N/A   Overcast
6:15 AM 24.8 °F 20.5 °F 21.4 °F 87% 30.14 in 10.0 mi SE 3.5 mph - N/A   Overcast
6:34 AM 24.8 °F - 21.6 °F 87% 30.13 in 10.0 mi Calm Calm - N/A   Overcast
6:55 AM 26.1 °F 21.9 °F 21.9 °F 84% 30.13 in 10.0 mi East 3.5 mph - N/A   Overcast
7:15 AM 25.0 °F 18.1 °F 21.6 °F 87% 30.13 in 10.0 mi SSE 5.8 mph - N/A   Overcast
7:35 AM 24.8 °F 20.5 °F 21.2 °F 86% 30.13 in 10.0 mi SSE 3.5 mph - N/A   Overcast
7:54 AM 24.4 °F 20.1 °F 21.2 °F 87% 30.13 in 10.0 mi ESE 3.5 mph - N/A   Overcast
8:14 AM 24.4 °F - 21.0 °F 87% 30.13 in 10.0 mi Calm Calm - N/A   Overcast
8:55 AM 24.4 °F 18.6 °F 21.2 °F 87% 30.13 in 10.0 mi East 4.6 mph - N/A   Overcast
9:15 AM 24.8 °F 16.1 °F 21.0 °F 86% 30.13 in 7.0 mi ENE 8.1 mph - N/A   Overcast
9:35 AM 24.6 °F 16.7 °F 21.0 °F 86% 30.13 in 7.0 mi East 6.9 mph - N/A   Overcast
9:54 AM 24.8 °F 17.9 °F 21.2 °F 86% 30.13 in 7.0 mi East 5.8 mph - N/A   Overcast
10:15 AM 24.6 °F 16.7 °F 21.2 °F 87% 30.14 in 10.0 mi East 6.9 mph - N/A   Overcast
10:35 AM 24.3 °F 16.3 °F 20.7 °F 86% 30.14 in 10.0 mi ESE 6.9 mph - N/A   Overcast
10:54 AM 23.9 °F 16.8 °F 20.3 °F 86% 30.14 in 10.0 mi SE 5.8 mph - N/A   Overcast
11:15 AM 23.7 °F 15.6 °F 20.1 °F 86% 30.14 in 10.0 mi ESE 6.9 mph - N/A   Overcast
11:35 AM 23.5 °F 14.5 °F 19.8 °F 85% 30.14 in 10.0 mi East 8.1 mph - N/A   Overcast
11:54 AM 23.5 °F 16.4 °F 19.4 °F 84% 30.13 in 10.0 mi East 5.8 mph - N/A   Overcast
12:15 PM 23.9 °F 15.8 °F 20.1 °F 85% 30.13 in 10.0 mi ESE 6.9 mph - N/A   Overcast
12:35 PM 24.1 °F 15.2 °F 20.3 °F 85% 30.12 in 10.0 mi East 8.1 mph - N/A   Overcast
1:15 PM 24.3 °F 17.3 °F 20.1 °F 84% 30.09 in 10.0 mi ESE 5.8 mph - N/A   Overcast
1:35 PM 24.4 °F 15.6 °F 20.3 °F 84% 30.09 in 10.0 mi ESE 8.1 mph - N/A   Overcast
1:55 PM 24.8 °F 16.1 °F 20.7 °F 84% 30.08 in 10.0 mi East 8.1 mph - N/A   Overcast
2:15 PM 24.4 °F 15.6 °F 20.3 °F 84% 30.07 in 10.0 mi East 8.1 mph - N/A   Overcast
2:35 PM 24.4 °F 15.6 °F 19.9 °F 83% 30.07 in 10.0 mi East 8.1 mph - N/A   Overcast
2:55 PM 24.6 °F 16.7 °F 20.1 °F 83% 30.06 in 10.0 mi ESE 6.9 mph - N/A   Overcast
3:15 PM 24.8 °F 16.9 °F 19.9 °F 82% 30.05 in 10.0 mi East 6.9 mph - N/A   Overcast
3:34 PM 24.6 °F 17.7 °F 19.6 °F 81% 30.05 in 10.0 mi East 5.8 mph - N/A   Overcast
3:55 PM 24.6 °F 16.7 °F 19.6 °F 81% 30.04 in 10.0 mi East 6.9 mph - N/A   Overcast
4:15 PM 24.6 °F 16.7 °F 19.4 °F 81% 30.04 in 10.0 mi East 6.9 mph - N/A   Overcast
4:34 PM 24.8 °F 16.9 °F 19.4 °F 80% 30.04 in 10.0 mi East 6.9 mph - N/A   Overcast
4:55 PM 24.8 °F 17.9 °F 19.2 °F 79% 30.04 in 10.0 mi East 5.8 mph - N/A   Overcast
5:15 PM 24.8 °F 16.9 °F 19.4 °F 80% 30.04 in 10.0 mi ENE 6.9 mph - N/A   Overcast
5:31 PM 24.6 °F 16.7 °F 19.4 °F 81% 30.05 in 10.0 mi East 6.9 mph - N/A   Overcast
5:54 PM 24.8 °F 17.9 °F 19.4 °F 80% 30.05 in 10.0 mi East 5.8 mph - N/A   Overcast
6:15 PM 24.8 °F 17.9 °F 19.4 °F 80% 30.05 in 10.0 mi East 5.8 mph - N/A   Overcast
6:54 PM 24.8 °F 17.9 °F 19.4 °F 80% 30.06 in 10.0 mi East 5.8 mph - N/A   Overcast
7:14 PM 25.2 °F 17.3 °F 19.4 °F 79% 30.07 in 10.0 mi East 6.9 mph - N/A   Overcast
7:35 PM 25.3 °F 18.5 °F 19.8 °F 79% 30.07 in 10.0 mi East 5.8 mph - N/A   Overcast
7:54 PM 25.2 °F 18.3 °F 19.4 °F 79% 30.06 in 10.0 mi East 5.8 mph - N/A   Overcast
8:14 PM 25.2 °F 17.3 °F 19.4 °F 79% 30.05 in 10.0 mi East 6.9 mph - N/A   Overcast
8:34 PM 25.2 °F 17.3 °F 19.4 °F 79% 30.05 in 10.0 mi East 6.9 mph - N/A   Overcast
8:54 PM 25.0 °F 17.1 °F 19.4 °F 79% 30.04 in 10.0 mi East 6.9 mph - N/A   Overcast
9:14 PM 24.8 °F 17.9 °F 19.4 °F 80% 30.04 in 10.0 mi East 5.8 mph - N/A   Overcast
9:34 PM 24.6 °F 17.7 °F 19.4 °F 81% 30.04 in 10.0 mi East 5.8 mph - N/A   Overcast
9:54 PM 24.6 °F 17.7 °F 19.4 °F 81% 30.03 in 10.0 mi East 5.8 mph - N/A   Overcast
10:15 PM 24.3 °F 16.3 °F 19.2 °F 81% 30.03 in 10.0 mi East 6.9 mph - N/A   Overcast
10:34 PM 23.9 °F 15.8 °F 19.2 °F 82% 30.03 in 10.0 mi East 6.9 mph - N/A   Overcast
10:54 PM 23.9 °F 15.8 °F 19.0 °F 82% 30.02 in 10.0 mi East 6.9 mph - N/A   Overcast
11:14 PM 24.3 °F 16.3 °F 19.0 °F 80% 30.02 in 10.0 mi East 6.9 mph - N/A   Overcast
11:35 PM 24.1 °F 16.0 °F 19.2 °F 82% 30.01 in 10.0 mi East 6.9 mph - N/A   Overcast
11:55 PM 24.3 °F 16.3 °F 19.2 °F 81% 30.00 in 10.0 mi East 6.9 mph - N/A   Overcast